Flag for U.S.A. Weather past 2 weeks in Shreveport, Louisiana, U.S.A.

Now
65 °F

Passing clouds.


Feels Like: 65 °F
Forecast: 40 / 62 °F
Wind: 10 mph from Southwest

Location: Shreveport Regional Airport

Current Time: Jan 26, 2015 at 4:38:43 PM

Latest Report: Jan 26, 2015 at 3:56 PM


Visibility: 10 mi

Pressure: 30.05 "Hg

Humidity: 31%

Dew point: 33 °F

Location of ShreveportLocation

Historic Weather in Shreveport — Graph

°F

Shreveport temperature yesterday

Maximum temperature yesterday: 66 °F (at 12:56 PM)
Minimum temperature yesterday: 37 °F (at 3:56 AM)
Average temperature yesterday: 51 °F

Past Weeks' High & Low Weather Summary

 TemperatureHumidityPressure
High70 °F (Jan 19, 3:56 PM)100% (Jan 11, 4:56 PM)30.48 "Hg (Jan 11, 4:56 PM)
Low28 °F (Jan 14, 5:56 AM)15% (Jan 18, 2:56 PM)29.85 "Hg (Jan 25, 1:56 PM)
Average46 °F68%30.17 "Hg
* Reported Jan 11 2:56 PM — Jan 26 2:56 PM, Shreveport, Weather by CustomWeather, © 2014

Note: Actual official high and low records may vary slightly from our data, if they occured in-between our weather recording intervals... More about our weather records

Advertising

Shreveport weather history for previous 24 hours

 ConditionsComfort  
Time TempWeatherWind HumidityBarometerVisibility
2:56 PM
Jan 26
64 °FSunny.8 mph32%30.07 "Hg10 mi
1:56 PM61 °FSunny.5 mph34%30.09 "Hg10 mi
12:56 PM59 °FSunny.6 mph36%30.12 "Hg10 mi
11:56 AM56 °FSunny.6 mph42%30.17 "Hg10 mi
10:56 AM53 °FSunny.7 mph47%30.20 "Hg10 mi
9:56 AM49 °FSunny.6 mph57%30.21 "Hg10 mi
8:56 AM44 °FSunny.7 mph65%30.20 "Hg10 mi
7:56 AM39 °FSunny.5 mph79%30.20 "Hg10 mi
6:56 AM39 °FClear.5 mph76%30.17 "Hg10 mi
5:56 AM39 °FClear.8 mph76%30.16 "Hg10 mi
4:56 AM42 °FClear.8 mph68%30.14 "Hg10 mi
3:56 AM43 °FClear.9 mph65%30.13 "Hg10 mi
2:56 AM44 °FClear.9 mph63%30.13 "Hg10 mi
1:56 AM45 °FClear.10 mph60%30.11 "Hg10 mi
12:56 AM46 °FClear.12 mph58%30.10 "Hg10 mi
11:56 PM
Jan 25
47 °FClear.9 mph54%30.09 "Hg10 mi
10:56 PM48 °FClear.9 mph54%30.08 "Hg10 mi
9:56 PM48 °FClear.7 mph52%30.06 "Hg10 mi
8:56 PM52 °FClear.9 mph45%30.04 "Hg10 mi
7:56 PM53 °FClear.9 mph43%30.02 "Hg10 mi
6:56 PM56 °FClear.10 mph37%29.99 "Hg10 mi
5:56 PM59 °FPassing clouds.17 mph33%29.97 "Hg10 mi
4:56 PM62 °FPassing clouds.18 mph30%29.94 "Hg10 mi
Weather by CustomWeather, © 2014

See weather overviewHow to use our weather pages